Aeroboteco Virtual Airlines! Uma nuvem a frente.



 INFORMAÇÕES METEOROLÓGICAS
METAR FOR SBTA
ADDS - METARS form results

(2121 UTC 13 July 2020)
Data provider http://aviationweather.gov/metar/data/
 
METAR text: SBTA 132100Z 00000KT CAVOK 24/14 Q1017
Conditions at: SBTA (TAUBATE (BASE) , BR) observed 2100 UTC 13 July 2020
Temperature: 24.0°C (75°F)
Dewpoint: 14.0°C (57°F) [RH = 54%]
Pressure (altimeter): 30.03 inches Hg (1017.0 mb)
Winds: calm
Visibility: 6 or more miles (10+ km)
Ceiling: ceiling and visibility are OK
Clouds: unknown
Weather: no significant weather observed at this time

 MAPA DO AEROPORTO

 INFORMAÇÕES DA PISTA
Pista 8 Tamanho da pista 112 ft Largura da pista 112 ft
Elevação da pista 0 ft Ranhura da pista 0 ft Proa da pista 0
Pista 26 Tamanho da pista 112 ft Largura da pista 112 ft
Elevação da pista 0 ft Ranhura da pista 0 ft Proa da pista 0

 FREQUÊNCIAS DO AEROPORTO
Tipo GND Nome GND Frequência 121.7 MHZ
Tipo TWR Nome TWR Frequência 119.9 MHZ

 AUXÍLIOS DE NAVEGAÇÃO PRÓXIMOS AO AEROPORTO
Tipo NDB Nome Taubate Frequência 430 KHZ